CW0041 Brunswick GA US current weather conditions

sailwx.info

Wind from 213 at 0 knots gusting 4

Air temperature 31.7° C
Dewpoint 25.3° C

Last reported at 2020-Aug-07 17:08 UTC.
Time now 2020-Aug-07 17:47 UTC

Location: N 31°17' W 081°32'.
View on Google Maps.

See reports from other nearby stations

  
Tides and Currents Weather Stations Pressure Air Temp Water Temp Dewpoint Dewpoint Depression Visibility Wind Speed Wind Dir Waves Ship Positions
date/time (UTC)wind fromknots sea level pressurealtimeterstation pressurevisibilityair tempwater tempwave heightnotes
2020-Aug-07 17:08 213 0 gusting 4 31.7
2020-Aug-07 17:03 176 0 gusting 3 31.7
2020-Aug-07 16:58 181 1 gusting 3 31.7
2020-Aug-07 16:53 086 0 gusting 2 32.2
2020-Aug-07 16:48 089 0 gusting 2 31.7
2020-Aug-07 16:43 089 31.7
2020-Aug-07 16:38 339 31.1
2020-Aug-07 16:33 339 0 gusting 2 30.6
2020-Aug-07 16:28 339 1 gusting 4 31.1
2020-Aug-07 16:22 338 1 gusting 4 31.1
2020-Aug-07 16:17 354 1 gusting 3 31.1
2020-Aug-07 16:12 354 0 gusting 3 31.1
2020-Aug-07 16:07 239 0 gusting 2 31.1
2020-Aug-07 16:02 219 0 gusting 2 30.6
2020-Aug-07 15:57 219 0 gusting 2 30.6
2020-Aug-07 15:52 117 1 gusting 3 30.6
2020-Aug-07 15:47 092 1 gusting 3 30.6
2020-Aug-07 15:42 124 0 gusting 2 30.6
2020-Aug-07 15:37 123 1 gusting 2 30.6
2020-Aug-07 15:32 159 0 gusting 2 30.6
2020-Aug-07 15:27 352 0 gusting 3 30.0
2020-Aug-07 15:22 352 1 gusting 3 29.4
2020-Aug-07 15:17 018 0 gusting 2 30.0
2020-Aug-07 15:12 297 0 gusting 1 30.0
2020-Aug-07 15:07 297 0 gusting 2 30.0
2020-Aug-07 15:02 218 0 gusting 2 30.0
2020-Aug-07 14:57 338 0 gusting 2 30.0
2020-Aug-07 14:52 013 0 gusting 2 30.0
2020-Aug-07 14:47 353 0 gusting 1 30.0
2020-Aug-07 14:42 353 0 gusting 2 29.4
2020-Aug-07 14:37 355 0 gusting 3 29.4
2020-Aug-07 14:32 337 0 gusting 3 28.9
2020-Aug-07 14:27 324 1 gusting 4 29.4
2020-Aug-07 14:22 339 0 gusting 4 29.4
2020-Aug-07 14:17 305 0 gusting 2 29.4
2020-Aug-07 14:12 343 0 gusting 1 29.4
2020-Aug-07 14:07 243 0 gusting 3 28.9
2020-Aug-07 14:02 243 0 gusting 3 28.3
2020-Aug-07 13:57 202 0 gusting 1 28.3
2020-Aug-07 13:52 311 0 gusting 1 28.3
2020-Aug-07 13:47 222 0 gusting 3 28.3
2020-Aug-07 13:42 223 0 gusting 3 28.3
2020-Aug-07 13:37 340 0 gusting 3 28.3
2020-Aug-07 13:32 340 0 gusting 3 27.8
2020-Aug-07 13:27 301 0 gusting 3 27.2
2020-Aug-07 13:22 296 0 gusting 3 26.7
2020-Aug-07 13:17 248 0 gusting 3 26.7
2020-Aug-07 13:12 248 0 gusting 3 26.7
2020-Aug-07 13:07 342 1 gusting 5 26.7
2020-Aug-07 13:02 307 0 gusting 5 26.1
2020-Aug-07 12:57 334 1 gusting 4 26.1
2020-Aug-07 12:51 329 2 gusting 5 25.6
2020-Aug-07 12:46 343 1 gusting 5 25.6
2020-Aug-07 12:41 339 1 gusting 3 25.6
2020-Aug-07 12:36 338 1 gusting 3 25.6
2020-Aug-07 12:31 355 1 gusting 4 25.0
2020-Aug-07 12:26 339 1 gusting 4 25.0
2020-Aug-07 12:21 342 1 gusting 3 24.4
2020-Aug-07 12:16 343 24.4
2020-Aug-07 12:11 350 24.4
2020-Aug-07 12:06 350 0 gusting 2 24.4
2020-Aug-07 12:01 350 0 gusting 2 23.9
2020-Aug-07 11:56 008 0 gusting 1 23.9
2020-Aug-07 11:51 008 23.9
2020-Aug-07 11:46 008 23.3
2020-Aug-07 11:41 008 23.3
2020-Aug-07 11:36 008 23.3
2020-Aug-07 11:31 008 23.3
2020-Aug-07 11:26 008 23.3
2020-Aug-07 11:21 008 23.3
2020-Aug-07 11:16 008 22.8
2020-Aug-07 11:11 008 22.8
2020-Aug-07 11:05 008 22.8
2020-Aug-07 11:00 008 23.3
2020-Aug-07 10:55 008 23.3
2020-Aug-07 10:50 008 22.8
2020-Aug-07 10:45 008 23.3
2020-Aug-07 10:40 008 23.3
2020-Aug-07 10:35 008 23.3
2020-Aug-07 10:30 008 23.3
2020-Aug-07 10:25 008 23.3
2020-Aug-07 10:20 008 23.3
2020-Aug-07 10:15 008 23.3
2020-Aug-07 10:10 008 23.3
2020-Aug-07 10:05 008 23.3
2020-Aug-07 10:00 008 23.3
2020-Aug-07 09:55 008 23.3
2020-Aug-07 09:50 008 23.3
2020-Aug-07 09:45 008 23.3
2020-Aug-07 09:40 008 23.3
2020-Aug-07 09:35 008 23.3
2020-Aug-07 09:30 008 0 gusting 1 23.3
2020-Aug-07 09:25 008 0 gusting 1 23.3
2020-Aug-07 09:20 008 0 gusting 1 23.3
2020-Aug-07 09:15 008 23.3
2020-Aug-07 09:10 008 23.9
2020-Aug-07 09:05 008 0 gusting 0 23.9
2020-Aug-07 09:00 008 0 gusting 1 23.9
2020-Aug-07 08:50 008 0 gusting 1 23.9
2020-Aug-07 08:45 221 23.9
2020-Aug-07 08:40 221 23.9
2020-Aug-07 08:35 228 23.9
2020-Aug-07 08:30 205 23.9
2020-Aug-07 08:25 208 23.9
2020-Aug-07 08:20 208 23.9
2020-Aug-07 08:15 208 23.9
2020-Aug-07 08:10 175 23.9
2020-Aug-07 08:05 085 23.9
2020-Aug-07 07:59 085 23.9
2020-Aug-07 07:54 085 23.9
2020-Aug-07 07:49 085 23.9
2020-Aug-07 07:44 085 23.9
2020-Aug-07 07:39 085 23.9
2020-Aug-07 07:34 326 23.9
2020-Aug-07 07:29 210 0 gusting 2 23.9
2020-Aug-07 07:24 210 0 gusting 2 23.9
2020-Aug-07 07:19 228 23.3
2020-Aug-07 07:14 303 23.3
2020-Aug-07 07:09 303 23.3
2020-Aug-07 07:04 303 23.3
2020-Aug-07 06:59 303 23.3
2020-Aug-07 06:54 303 23.3
2020-Aug-07 06:49 303 23.3
2020-Aug-07 06:44 303 23.3
2020-Aug-07 06:39 303 23.3
2020-Aug-07 06:34 303 23.9
2020-Aug-07 06:29 303 23.3
2020-Aug-07 06:24 303 23.9
2020-Aug-07 06:19 303 23.9
2020-Aug-07 06:14 303 23.9
2020-Aug-07 06:09 303 23.9
2020-Aug-07 06:04 303 0 gusting 1 23.9
2020-Aug-07 05:59 303 0 gusting 2 23.9
2020-Aug-07 05:53 303 23.9
2020-Aug-07 05:48 226 23.9
2020-Aug-07 05:43 226 23.9
2020-Aug-07 05:38 226 23.9
2020-Aug-07 05:33 226 23.9
2020-Aug-07 05:28 226 23.9
2020-Aug-07 05:23 226 23.9
2020-Aug-07 05:18 226 23.9
2020-Aug-07 05:13 226 23.9
2020-Aug-07 05:08 226 23.9
2020-Aug-07 05:03 226 23.9
2020-Aug-07 04:58 226 23.9
2020-Aug-07 04:53 226 23.9
2020-Aug-07 04:48 226 23.9
2020-Aug-07 04:43 226 23.9
2020-Aug-07 04:38 226 0 gusting 1 23.9
2020-Aug-07 04:33 226 0 gusting 2 23.9
2020-Aug-07 04:28 226 0 gusting 2 23.9
2020-Aug-07 04:23 170 0 gusting 1 23.9
2020-Aug-07 04:18 170 0 gusting 2 23.9
2020-Aug-07 04:13 170 0 gusting 2 24.4
2020-Aug-07 04:08 167 0 gusting 1 24.4
2020-Aug-07 04:03 167 24.4
2020-Aug-07 03:58 164 24.4
2020-Aug-07 03:53 164 24.4
2020-Aug-07 03:48 164 24.4
2020-Aug-07 03:43 164 24.4
2020-Aug-07 03:38 164 24.4
2020-Aug-07 03:33 164 24.4
2020-Aug-07 03:28 164 24.4
2020-Aug-07 03:23 164 24.4
2020-Aug-07 03:18 164 24.4
2020-Aug-07 03:13 164 24.4
2020-Aug-07 03:07 164 24.4
2020-Aug-07 03:02 164 24.4
2020-Aug-07 02:57 164 24.4
2020-Aug-07 02:52 164 25.0
2020-Aug-07 02:47 164 25.0
2020-Aug-07 02:42 164 25.0
2020-Aug-07 02:37 164 25.0
2020-Aug-07 02:32 164 25.0
2020-Aug-07 02:27 164 25.0
2020-Aug-07 02:22 164 25.0
2020-Aug-07 02:17 164 25.0
2020-Aug-07 02:12 160 25.0
2020-Aug-07 02:07 160 0 gusting 1 25.0
2020-Aug-07 02:02 160 0 gusting 1 25.0
2020-Aug-07 01:57 160 0 gusting 1 25.0
2020-Aug-07 01:52 160 25.0
2020-Aug-07 01:47 160 25.0
2020-Aug-07 01:42 160 25.0
2020-Aug-07 01:37 160 25.0
2020-Aug-07 01:32 160 25.0
2020-Aug-07 01:27 160 25.0
2020-Aug-07 01:22 160 25.0
2020-Aug-07 01:17 160 25.0
2020-Aug-07 01:12 160 25.0
2020-Aug-07 01:06 160 25.0
2020-Aug-07 01:01 160 25.0
2020-Aug-07 00:56 160 25.0
2020-Aug-07 00:51 160 25.0
2020-Aug-07 00:46 160 25.0
2020-Aug-07 00:41 160 25.6
2020-Aug-07 00:36 160 25.0
2020-Aug-07 00:31 160 25.0
2020-Aug-07 00:26 160 25.0
2020-Aug-07 00:21 160 25.6
2020-Aug-07 00:16 160 25.6
2020-Aug-07 00:11 160 25.6
2020-Aug-07 00:06 160 25.6
2020-Aug-07 00:01 160 25.6
2020-Aug-06 23:56 160 0 gusting 1 25.6
2020-Aug-06 23:51 270 0 gusting 1 25.6
2020-Aug-06 23:46 270 0 gusting 1 25.6
2020-Aug-06 23:41 270 0 gusting 1 25.6
2020-Aug-06 23:36 303 0 gusting 1 25.6
2020-Aug-06 23:31 303 25.6
2020-Aug-06 23:26 345 25.6
2020-Aug-06 23:21 345 25.6
2020-Aug-06 23:16 345 25.6
2020-Aug-06 23:11 345 25.6
2020-Aug-06 23:05 345 25.6
2020-Aug-06 23:00 345 25.6
2020-Aug-06 22:55 345 25.6
2020-Aug-06 22:50 345 25.6
2020-Aug-06 22:45 345 25.6
2020-Aug-06 22:40 345 25.6
2020-Aug-06 22:35 345 25.6
2020-Aug-06 22:30 345 25.6
2020-Aug-06 22:25 349 26.1
2020-Aug-06 22:20 319 26.1
2020-Aug-06 22:15 318 26.1
2020-Aug-06 22:10 330 0 gusting 3 26.7
2020-Aug-06 22:05 340 0 gusting 3 26.7
2020-Aug-06 22:00 199 26.7
2020-Aug-06 21:55 008 0 gusting 1 26.7
2020-Aug-06 21:50 008 0 gusting 1 26.7
2020-Aug-06 21:45 157 26.7
2020-Aug-06 21:40 157 26.7
2020-Aug-06 21:35 157 27.2
2020-Aug-06 21:25 217 0 gusting 3 27.2
2020-Aug-06 21:20 184 0 gusting 1 27.8
2020-Aug-06 21:15 183 0 gusting 2 27.8
2020-Aug-06 21:10 151 1 gusting 7 27.8
2020-Aug-06 21:04 091 1 gusting 7 28.3
2020-Aug-06 20:59 120 0 gusting 4 28.3
2020-Aug-06 20:54 174 0 gusting 4 28.3
2020-Aug-06 20:49 205 1 gusting 6 28.3
2020-Aug-06 20:45 225 1 gusting 6 28.3
2020-Aug-06 20:39 217 2 gusting 7 28.9
2020-Aug-06 20:34 221 2 gusting 9 28.9
2020-Aug-06 20:29 218 2 gusting 9 28.9
2020-Aug-06 20:24 243 0 gusting 3 28.9
2020-Aug-06 20:19 226 1 gusting 6 28.9
2020-Aug-06 20:14 226 2 gusting 6 28.9
2020-Aug-06 20:09 239 2 gusting 6 28.9
2020-Aug-06 20:04 222 1 gusting 5 29.4
2020-Aug-06 19:59 237 0 gusting 6 29.4
2020-Aug-06 19:54 229 2 gusting 6 29.4
2020-Aug-06 19:49 253 3 gusting 6 29.4
2020-Aug-06 19:44 190 2 gusting 6 29.4
2020-Aug-06 19:39 179 2 gusting 6 29.4
2020-Aug-06 19:34 260 3 gusting 6 30.0
2020-Aug-06 19:29 247 1 gusting 6 30.0
2020-Aug-06 19:24 221 1 gusting 5 30.0
2020-Aug-06 19:19 112 2 gusting 9 30.0
2020-Aug-06 19:14 272 2 gusting 9 30.0
2020-Aug-06 19:09 267 2 gusting 7 30.0
2020-Aug-06 19:04 218 2 gusting 6 30.6
2020-Aug-06 18:59 266 1 gusting 6 30.6
2020-Aug-06 18:54 251 1 gusting 6 30.6
2020-Aug-06 18:49 239 1 gusting 6 30.6
2020-Aug-06 18:44 214 2 gusting 6 30.6
2020-Aug-06 18:39 251 1 gusting 6 30.6
2020-Aug-06 18:33 185 0 gusting 4 31.1
2020-Aug-06 18:29 216 1 gusting 5 31.1
2020-Aug-06 18:24 207 2 gusting 5 31.7
2020-Aug-06 18:18 222 2 gusting 5 31.7
2020-Aug-06 18:13 236 2 gusting 6 32.2
2020-Aug-06 18:08 272 1 gusting 6 31.7
2020-Aug-06 18:03 353 1 gusting 6 32.2
2020-Aug-06 17:58 062 2 gusting 6 31.7
2020-Aug-06 17:53 087 2 gusting 6 32.2
2020-Aug-06 17:48 168 2 gusting 6 31.7
2020-Aug-06 17:43 189 1 gusting 5 31.7
2020-Aug-06 17:38 224 1 gusting 5 31.1
2020-Aug-06 17:33 112 2 gusting 6 31.1
2020-Aug-06 17:28 228 2 gusting 6 31.1
2020-Aug-06 17:23 245 1 gusting 5 31.1
2020-Aug-06 17:18 197 1 gusting 5 31.1
2020-Aug-06 17:13 156 0 gusting 3 31.1
2020-Aug-06 17:08 131 30.6
2020-Aug-06 17:03 291 30.6
2020-Aug-06 16:58 291 0 gusting 3 31.1
2020-Aug-06 16:53 291 1 gusting 3 31.1
2020-Aug-06 16:48 288 2 gusting 4 31.7
2020-Aug-06 16:43 359 1 gusting 4 31.7
2020-Aug-06 16:38 340 1 gusting 4 32.2
2020-Aug-06 16:33 091 1 gusting 3 32.2
2020-Aug-06 16:28 231 0 gusting 2 31.7
2020-Aug-06 16:23 231 1 gusting 4 31.7
2020-Aug-06 16:18 303 0 gusting 4 31.7
2020-Aug-06 16:13 288 0 gusting 6 31.7
2020-Aug-06 16:08 287 1 gusting 6 32.2
2020-Aug-06 16:03 228 0 gusting 3 32.2
2020-Aug-06 15:58 184 0 gusting 3 31.7
2020-Aug-06 15:53 022 0 gusting 1 31.1
2020-Aug-06 15:48 341 0 gusting 1 30.6
2020-Aug-06 15:43 341 0 gusting 2 30.6
2020-Aug-06 15:38 341 0 gusting 2 30.6
2020-Aug-06 15:32 016 0 gusting 2 30.6
2020-Aug-06 15:28 122 0 gusting 3 30.6
2020-Aug-06 15:23 122 1 gusting 4 31.1
2020-Aug-06 15:17 118 1 gusting 4 31.1
2020-Aug-06 15:12 107 1 gusting 2 30.6
2020-Aug-06 15:07 357 0 gusting 2 30.6
2020-Aug-06 15:02 313 0 gusting 3 30.6
2020-Aug-06 14:58 332 1 gusting 3 29.4
2020-Aug-06 14:52 354 0 gusting 2 30.0
2020-Aug-06 14:47 355 0 gusting 2 30.0
2020-Aug-06 14:42 335 0 gusting 2 30.6
2020-Aug-06 14:37 357 0 gusting 3 30.0
2020-Aug-06 14:32 333 0 gusting 3 30.6
2020-Aug-06 14:27 320 0 gusting 4 30.0
2020-Aug-06 14:22 334 0 gusting 4 30.0
2020-Aug-06 14:17 271 1 gusting 3 30.0
2020-Aug-06 14:12 026 1 gusting 3 29.4
2020-Aug-06 14:07 211 1 gusting 4 29.4
2020-Aug-06 14:02 199 1 gusting 4 29.4
2020-Aug-06 13:57 232 1 gusting 3 29.4
2020-Aug-06 13:52 001 1 gusting 5 28.9
2020-Aug-06 13:47 340 0 gusting 5 29.4
2020-Aug-06 13:42 224 0 gusting 3 29.4
2020-Aug-06 13:37 338 1 gusting 3 28.9
2020-Aug-06 13:32 343 0 gusting 3 28.9
2020-Aug-06 13:27 222 0 gusting 3 28.9
2020-Aug-06 13:22 328 0 gusting 2 28.3
2020-Aug-06 13:16 228 0 gusting 2 28.3
2020-Aug-06 13:11 228 0 gusting 2 28.3
2020-Aug-06 13:06 268 0 gusting 3 28.3
2020-Aug-06 13:01 318 1 gusting 3 27.8
2020-Aug-06 12:56 255 1 gusting 4 27.8
2020-Aug-06 12:51 183 0 gusting 4 27.2
2020-Aug-06 12:46 209 1 gusting 3 27.2
2020-Aug-06 12:41 218 0 gusting 3 27.2
2020-Aug-06 12:36 210 0 gusting 3 27.2
2020-Aug-06 12:31 288 0 gusting 2 27.2
2020-Aug-06 12:26 255 26.7
2020-Aug-06 12:21 311 26.1
2020-Aug-06 12:16 311 0 gusting 2 26.1
2020-Aug-06 12:11 311 0 gusting 2 26.1
2020-Aug-06 12:06 311 26.1
2020-Aug-06 12:01 292 0 gusting 2 25.6
2020-Aug-06 11:55 292 0 gusting 2 25.6
2020-Aug-06 11:50 353 25.6
2020-Aug-06 11:45 353 25.0
2020-Aug-06 11:40 353 25.0
2020-Aug-06 11:35 353 0 gusting 1 25.0
2020-Aug-06 11:30 353 0 gusting 1 25.0
2020-Aug-06 11:25 353 0 gusting 1 25.0
2020-Aug-06 11:20 353 0 gusting 1 25.0
2020-Aug-06 11:15 353 0 gusting 1 25.0
2020-Aug-06 11:10 353 0 gusting 1 25.0
2020-Aug-06 11:05 353 25.0
2020-Aug-06 11:00 353 0 gusting 2 25.0
2020-Aug-06 10:55 353 0 gusting 2 25.0
2020-Aug-06 10:50 355 25.0
2020-Aug-06 10:45 355 0 gusting 2 25.0
2020-Aug-06 10:40 037 25.0
2020-Aug-06 10:35 052 25.0
2020-Aug-06 10:30 356 25.0
2020-Aug-06 10:25 356 25.0
2020-Aug-06 10:20 356 25.0
2020-Aug-06 10:15 356 0 gusting 1 25.0
2020-Aug-06 10:10 356 0 gusting 2 25.0
2020-Aug-06 10:05 012 0 gusting 2 25.6
2020-Aug-06 10:00 230 25.6
2020-Aug-06 09:55 229 25.6
2020-Aug-06 09:50 229 0 gusting 3 25.6
2020-Aug-06 09:45 229 0 gusting 3 25.6
2020-Aug-06 09:40 221 0 gusting 3 25.6
2020-Aug-06 09:35 225 0 gusting 2 25.6
2020-Aug-06 09:30 212 25.6
2020-Aug-06 09:25 212 0 gusting 2 25.6
2020-Aug-06 09:20 212 0 gusting 3 25.6
2020-Aug-06 09:14 203 1 gusting 3 25.6
2020-Aug-06 09:09 224 0 gusting 2 25.6
2020-Aug-06 09:04 211 0 gusting 2 25.6
2020-Aug-06 08:59 211 0 gusting 2 25.6
2020-Aug-06 08:54 211 0 gusting 2 25.6
2020-Aug-06 08:49 242 0 gusting 2 25.6
2020-Aug-06 08:44 235 0 gusting 2 25.6
2020-Aug-06 08:39 235 25.6
2020-Aug-06 08:34 235 25.0
2020-Aug-06 08:29 235 25.6
2020-Aug-06 08:24 235 25.6
2020-Aug-06 08:19 235 0 gusting 1 25.6
2020-Aug-06 08:14 235 0 gusting 1 26.1
2020-Aug-06 08:09 235 0 gusting 1 26.1
2020-Aug-06 08:04 236 0 gusting 2 26.1
2020-Aug-06 07:59 235 0 gusting 2 26.1
2020-Aug-06 07:54 219 0 gusting 2 26.1
2020-Aug-06 07:49 219 0 gusting 2 26.1
2020-Aug-06 07:44 220 0 gusting 2 26.1
2020-Aug-06 07:39 220 0 gusting 2 26.1
2020-Aug-06 07:34 220 0 gusting 3 26.1
2020-Aug-06 07:29 218 0 gusting 3 26.1
2020-Aug-06 07:24 224 1 gusting 4 26.7
2020-Aug-06 07:19 251 1 gusting 4 26.7
2020-Aug-06 07:14 210 1 gusting 4 26.7
2020-Aug-06 07:09 235 0 gusting 4 26.7
2020-Aug-06 07:04 217 0 gusting 3 26.7
2020-Aug-06 06:59 217 1 gusting 5 26.7
2020-Aug-06 06:54 222 1 gusting 5 26.7
2020-Aug-06 06:49 232 0 gusting 2 26.7
2020-Aug-06 06:44 227 1 gusting 3 27.2
2020-Aug-06 06:39 196 1 gusting 3 27.2
2020-Aug-06 06:34 217 0 gusting 2 27.2
2020-Aug-06 06:29 220 1 gusting 3 27.2
2020-Aug-06 06:24 241 1 gusting 3 27.2
2020-Aug-06 06:18 235 1 gusting 3 27.2
2020-Aug-06 06:13 207 0 gusting 3 27.2
2020-Aug-06 06:08 234 1 gusting 4 27.8
2020-Aug-06 06:03 247 1 gusting 4 27.8
2020-Aug-06 05:58 240 2 gusting 6 27.8
2020-Aug-06 05:53 219 2 gusting 7 27.8
2020-Aug-06 05:48 213 3 gusting 7 27.8
2020-Aug-06 05:43 225 3 gusting 9 27.8
2020-Aug-06 05:38 222 3 gusting 9 27.8
2020-Aug-06 05:33 221 3 gusting 6 27.8
2020-Aug-06 05:28 223 3 gusting 6 27.8
2020-Aug-06 05:23 221 3 gusting 7 28.3
2020-Aug-06 05:18 200 3 gusting 7 28.3
2020-Aug-06 05:13 249 4 gusting 9 28.3
2020-Aug-06 05:08 255 4 gusting 9 28.3
2020-Aug-06 05:03 214 3 gusting 8 28.3
2020-Aug-06 04:58 222 2 gusting 8 28.3
2020-Aug-06 04:53 260 1 gusting 5 28.3
2020-Aug-06 04:48 228 1 gusting 4 28.3
2020-Aug-06 04:43 236 1 gusting 4 28.3
2020-Aug-06 04:38 224 0 gusting 3 27.8
2020-Aug-06 04:33 244 1 gusting 4 28.3
2020-Aug-06 04:28 241 1 gusting 4 28.3
2020-Aug-06 04:23 218 1 gusting 3 28.3
2020-Aug-06 04:18 230 1 gusting 3 28.3
2020-Aug-06 04:13 217 0 gusting 2 28.3
2020-Aug-06 04:08 222 0 gusting 2 28.3
2020-Aug-06 04:02 223 0 gusting 2 28.3
2020-Aug-06 03:57 223 0 gusting 2 28.3
2020-Aug-06 03:52 222 0 gusting 5 28.3
2020-Aug-06 03:47 191 0 gusting 5 28.3
2020-Aug-06 03:42 232 1 gusting 4 28.3
2020-Aug-06 03:37 246 2 gusting 5 28.3
2020-Aug-06 03:32 212 2 gusting 6 28.3
2020-Aug-06 03:27 207 1 gusting 6 28.3
2020-Aug-06 03:22 254 0 gusting 4 28.3
2020-Aug-06 03:17 205 0 gusting 3 28.3
2020-Aug-06 03:12 247 1 gusting 5 28.3
2020-Aug-06 03:07 230 1 gusting 5 28.3
2020-Aug-06 03:02 251 2 gusting 5 28.3
2020-Aug-06 02:57 210 2 gusting 6 28.3
2020-Aug-06 02:52 230 2 gusting 6 28.3
2020-Aug-06 02:47 242 2 gusting 5 28.3
2020-Aug-06 02:42 198 2 gusting 4 28.3
2020-Aug-06 02:37 264 1 gusting 4 28.3
2020-Aug-06 02:32 219 1 gusting 6 28.3
2020-Aug-06 02:27 212 2 gusting 6 28.3
2020-Aug-06 02:22 226 2 gusting 6 28.3
2020-Aug-06 02:17 161 1 gusting 6 28.3
2020-Aug-06 02:12 239 1 gusting 6 28.3
2020-Aug-06 02:07 202 1 gusting 4 28.3
2020-Aug-06 02:02 216 1 gusting 4 28.3
2020-Aug-06 01:57 214 1 gusting 4 28.3
2020-Aug-06 01:52 226 1 gusting 4 28.3
2020-Aug-06 01:47 222 1 gusting 4 28.3
2020-Aug-06 01:42 227 1 gusting 4 28.3
2020-Aug-06 01:37 228 1 gusting 4 28.3
2020-Aug-06 01:32 224 1 gusting 4 28.3
2020-Aug-06 01:27 244 1 gusting 4 28.3
2020-Aug-06 01:21 193 1 gusting 5 28.3
2020-Aug-06 01:16 237 1 gusting 5 28.3
2020-Aug-06 01:11 223 0 gusting 2 28.3
2020-Aug-06 01:06 218 0 gusting 2 28.3
2020-Aug-06 01:01 219 0 gusting 3 28.3
2020-Aug-06 00:56 205 0 gusting 4 28.3
2020-Aug-06 00:51 219 2 gusting 9 28.9
2020-Aug-06 00:46 239 2 gusting 9 28.9
2020-Aug-06 00:41 212 2 gusting 7 28.9
2020-Aug-06 00:36 210 2 gusting 6 28.9
2020-Aug-06 00:31 232 1 gusting 6 28.9
2020-Aug-06 00:26 193 1 gusting 5 28.9
2020-Aug-06 00:21 227 2 gusting 6 28.9
2020-Aug-06 00:16 205 2 gusting 6 28.9
2020-Aug-06 00:11 228 1 gusting 4 29.4
2020-Aug-06 00:06 215 1 gusting 3 29.4
2020-Aug-06 00:01 221 2 gusting 7 29.4
2020-Aug-05 23:56 222 2 gusting 7 29.4
2020-Aug-05 23:51 174 2 gusting 7 29.4
2020-Aug-05 23:46 176 3 gusting 7 29.4
2020-Aug-05 23:41 212 3 gusting 7 29.4
2020-Aug-05 23:36 235 2 gusting 6 29.4
2020-Aug-05 23:31 247 2 gusting 6 29.4
2020-Aug-05 23:21 235 1 gusting 6 29.4
2020-Aug-05 23:16 212 1 gusting 5 29.4
2020-Aug-05 23:11 221 2 gusting 6 29.4
2020-Aug-05 23:06 116 2 gusting 6 28.9
2020-Aug-05 23:01 230 3 gusting 7 28.9
2020-Aug-05 22:56 210 2 gusting 7 28.9
2020-Aug-05 22:51 235 2 gusting 6 28.9
2020-Aug-05 22:46 243 2 gusting 6 29.4
2020-Aug-05 22:41 216 3 gusting 7 29.4
2020-Aug-05 22:36 199 4 gusting 9 29.4
2020-Aug-05 22:31 245 3 gusting 9 29.4
2020-Aug-05 22:25 216 2 gusting 6 29.4
2020-Aug-05 22:20 234 3 gusting 7 29.4
2020-Aug-05 22:15 231 2 gusting 7 29.4
2020-Aug-05 22:10 242 2 gusting 6 30.0
2020-Aug-05 22:05 191 2 gusting 6 30.0
2020-Aug-05 22:00 217 2 gusting 6 30.0
2020-Aug-05 21:55 134 3 gusting 6 30.6
2020-Aug-05 21:50 243 3 gusting 7 30.6
2020-Aug-05 21:45 221 3 gusting 7 31.1
2020-Aug-05 21:40 236 3 gusting 7 31.1
2020-Aug-05 21:35 214 3 gusting 7 30.6
2020-Aug-05 21:30 243 3 gusting 7 30.6
2020-Aug-05 21:25 229 3 gusting 7 30.6
2020-Aug-05 21:20 242 3 gusting 9 30.6
2020-Aug-05 21:15 220 2 gusting 9 31.1
2020-Aug-05 21:10 171 3 gusting 8 31.1
2020-Aug-05 21:05 171 4 gusting 8 31.1
2020-Aug-05 21:00 235 3 gusting 8 31.1
2020-Aug-05 20:55 210 4 gusting 8 31.1
2020-Aug-05 20:49 232 3 gusting 8 31.1
2020-Aug-05 20:45 230 3 gusting 8 31.7
2020-Aug-05 20:40 176 3 gusting 7 31.7
2020-Aug-05 20:34 234 2 gusting 7 31.7
2020-Aug-05 20:29 191 2 gusting 6 31.7
2020-Aug-05 20:24 217 2 gusting 6 31.7
2020-Aug-05 20:19 207 3 gusting 10 31.7
2020-Aug-05 20:14 222 3 gusting 10 31.7
2020-Aug-05 20:09 193 2 gusting 6 32.2
2020-Aug-05 20:04 214 2 gusting 6 31.7
2020-Aug-05 19:59 151 2 gusting 6 31.7
2020-Aug-05 19:54 141 2 gusting 5 31.7
2020-Aug-05 19:49 203 2 gusting 6 31.7
2020-Aug-05 19:44 253 2 gusting 6 31.7
2020-Aug-05 19:39 204 2 gusting 7 32.2
2020-Aug-05 19:34 136 2 gusting 7 32.2
2020-Aug-05 19:29 207 1 gusting 5 32.2
2020-Aug-05 19:24 222 1 gusting 5 32.2
2020-Aug-05 19:19 188 2 gusting 5 32.2
2020-Aug-05 19:14 178 2 gusting 6 32.2
2020-Aug-05 19:09 218 2 gusting 6 32.2
2020-Aug-05 19:04 094 1 gusting 5 32.2
2020-Aug-05 18:59 174 1 gusting 5 32.2
2020-Aug-05 18:54 110 1 gusting 5 32.2
2020-Aug-05 18:49 133 2 gusting 9 32.2
2020-Aug-05 18:44 190 3 gusting 9 32.2
2020-Aug-05 18:39 215 2 gusting 6 31.7
2020-Aug-05 18:34 100 2 gusting 6 31.7
2020-Aug-05 18:29 254 2 gusting 6 32.2
2020-Aug-05 18:24 235 1 gusting 5 32.2
2020-Aug-05 18:19 162 1 gusting 5 31.7
2020-Aug-05 18:14 221 1 gusting 5 31.7
2020-Aug-05 18:09 163 1 gusting 4 32.2
2020-Aug-05 18:04 243 1 gusting 4 32.2
2020-Aug-05 17:58 212 1 gusting 4 32.2
2020-Aug-05 17:53 112 1 gusting 4 32.2
2020-Aug-05 17:48 057 1 gusting 4 32.2
2020-Aug-05 17:43 246 1 gusting 7 31.7
2020-Aug-05 17:38 239 2 gusting 7 31.7
2020-Aug-05 17:33 106 2 gusting 7 31.7
2020-Aug-05 17:28 231 2 gusting 7 31.7
2020-Aug-05 17:23 242 2 gusting 6 31.7
2020-Aug-05 17:18 310 2 gusting 6 31.7
2020-Aug-05 17:13 206 2 gusting 6 31.7
2020-Aug-05 17:08 256 1 gusting 6 31.7
2020-Aug-05 17:03 235 1 gusting 6 31.7